Tracking 27420 objects as of 10-Jun-2023
HD Live streaming from Space Station
objects crossing your sky now

ATLAS 5 CENTAUR DEB

Track ATLAS 5 CENTAUR DEB now!


NORAD ID: 44003
Int'l Code: 2014-055BJ
Perigee: 9,287.4 km
Apogee: 34,780.2 km
Inclination: 21.0 °
Period: 794.0 minutes
Semi major axis: 28404 km
RCS: Unknown
Launch date: September 17, 2014
Source: United States (US)
Launch site: AIR FORCE EASTERN TEST RANGE (AFETR)

Note: This is SATELLITE DEBRIS
Your satellite tracking list
Your tracking list is empty




NASA's NSSDC Master Catalog

Two Line Element Set (TLE):
1 44003U 14055BJ  23156.30011735 -.00000080  00000-0  00000-0 0  9992
2 44003  21.0187 273.5806 4487415 299.6064  23.2639  1.81349303 31362
Source of the keplerian elements: AFSPC